Other Surface Observations
Issued by NWS Tucson, AZ

Home | Current Version | Previous Version | Text Only | Print | Product List | Glossary On
Versions: 1 2 3 4 5 6 7 8 9 10 11 12 13 14 15 16 17 18 19 20 21 22 23 24 25 26 27 28 29 30 31 32 33 34 35 36 37 38 39 40 41 42 43 44 45 46 47 48 49 50
000
SXUS55 KTWC 230416
OSOTWC

WEATHER ROUNDUP FOR SOUTHEAST ARIZONA
NATIONAL WEATHER SERVICE TUCSON AZ
915 PM MST TUE JUL 22 2014

AZZ504>506-514-230515-
LOCATION       SKY/WX    TMP DP  RH WIND       PRES   REMARKS
TUCSON         PTCLDY    99  47  17 N7        30.00R
DAVIS-MONTHAN  MOCLDY    98  50  19 NW6       29.99R
CHILDRENS PARK N/A      100  46  16 NW4               PIMA CO DEQ
ALVERNON/22ND  N/A      N/A N/A N/A N/A               PIMA CO DEQ
CHERRY/GLENN   N/A      N/A N/A N/A N/A               PIMA CO DEQ
TANGERINE      N/A      100 N/A N/A NW4               PIMA CO DEQ
CONTL RANCH    N/A      102  47  16 NW5               PIMA CO DEQ
GRANT/1ST      N/A      101  45  15 NW5               PIMA CO DEQ
CRAYCROFT/22ND N/A      N/A N/A N/A N/A               PIMA CO DEQ
GOLFLINKS/KOLB N/A      N/A N/A N/A N/A               PIMA CO DEQ
AJO/12TH       N/A      101  45  15 NW4               PIMA CO DEQ
SAGUARO EAST   N/A      N/A N/A N/A N/A               PIMA CO DEQ
FAIRGROUNDS    N/A       98 N/A N/A W5                PIMA CO DEQ
SAGUARO        N/A       98  47  18 NW5               *SABINO CYN
SAN CARLOS     N/A       93  52  25 E6G17             *SAN CARLOS
GREEN VALLEY   N/A       98  49  19 E1                PIMA CO DEQ
HORSE CAMP CYN N/A       94  41  16 W8G17             *ARAVAIPA CYN
RINCON MTNS    N/A       69  44  40 CALM              *NR MANNING CAMP
$$

AZZ509>511-230515-
LOCATION       SKY/WX    TMP DP  RH WIND       PRES   REMARKS
SAFFORD        CLOUDY    93  50  23 E13       30.06R
STRAY HORSE    N/A       69  47  46 NE3               *
TRAIL CABIN    N/A       74  50  43 E6                *N OF GRANVILLE
BLACK HILLS    N/A       93  48  22 E6G13             *N OF FT THOMAS
DRY LAKE       N/A       70  48  45 E4G10             *NATANES MTNS
NOON CREEK     N/A       82  53  37 SW3               *PINALENO MTNS
COLUMBINE      N/A       59  50  72 CALM              *PINALENO MTNS
GUTHRIE        N/A       76  48  37 NE15G28           *SW OF GUTHRIE
$$

AZZ502-503-513-230515-
LOCATION       SKY/WX    TMP DP  RH WIND       PRES   REMARKS
NOGALES        CLOUDY    89  52  28 SE6       30.12R
SELLS          N/A       98  46  17 NE4G10            *
SASABE         N/A       92  52  26 W3                *ALTAR VLY
HOPKINS        N/A       77  46  33 SW2               *SANTA RITA MTNS
CARR CYN       N/A       80  49  34 SW4               *W OF HEREFORD
$$

AZZ507-508-512-230515-
LOCATION       SKY/WX    TMP DP  RH WIND       PRES   REMARKS
SIERRA VISTA   CLOUDY    88  50  27 SW6       30.20R
DOUGLAS        CLOUDY    83  55  38 SW13G23   30.18R
EMPIRE MTNS    N/A       84  48  29 SW3               *LAS CIENEGAS NCA
MULESHOE RANCH N/A       92  42  18 NW5G11            *PRESERVE
HEADQUARTERS   N/A       83  49  31 NE6G11            *CHIRICAHUA MTNS
$$

.............................NOTES.............................
THIS IS AN AUTOMATED COLLECTIVE WITH MINIMAL QUALITY CONTROL.
PIMA CO DEQ SITES HAVE NONSTANDARD WIND SENSOR HEIGHTS.
PIMA CO DEQ SITES DO NOT REPORT WIND GUSTS.
* INDICATES WIND SENSORS LOCATED AT 20 FEET INSTEAD OF 33 FEET.
..............................KEY..............................
SKY/WX - SKY CONDITION/WEATHER
TMP    - TEMPERATURE IN FAHRENHEIT
DP     - DEWPOINT IN FAHRENHEIT
RH     - RELATIVE HUMIDITY IN PERCENT
WIND   - DIRECTION AND SPEED IN MILES PER HOUR (MPH)
VRB    - VARIABLE WIND DIRECTION
PRES   - MEAN SEA LEVEL PRESSURE IN INCHES OF MERCURY
         F - FALLING PRESSURE   R - RISING PRESSURE
         S - STEADY PRESSURE
VSB    - VISIBILITY IN MILES
HX     - HEAT INDEX IN FAHRENHEIT
WCI    - WIND CHILL INDEX IN FAHRENHEIT
N/A    - NOT AVAILABLE
AFB    - AIR FORCE BASE
         DAVIS-MONTHAN IS DAVIS-MONTHAN AIR FORCE BASE
CYN    - CANYON
MTNS   - MOUNTAINS
NCA    - NATIONAL CONSERVATION AREA
NR     - NEAR
VLY    - VALLEY
CONTL  - CONTINENTAL
PIMA CO DEQ - PIMA COUNTY DEPT OF ENVIRONMENTAL QUALITY



USA.gov is the U.S. government's official web portal to all federal, state and local government web resources and services.